| time (UTC) | temp F | wind direction | speed MPH | gust MPH | rain 1hr in | rain 24hr in | rain mn in | humidity % | barometer mb |
| 20260902004543 | 87 | 256 | 6.0 | 11.0 | 0.00 | 0.00 | 0.00 | 12 | 1005.1 |
| 20260902004042 | 88 | 191 | 5.0 | 12.0 | 0.00 | 0.00 | 0.00 | 12 | 1005.3 |
| 20260902003542 | 88 | 205 | 5.0 | 12.0 | 0.00 | 0.00 | 0.00 | 12 | 1005.2 |
| 20260902003042 | 88 | 217 | 8.0 | 13.0 | 0.00 | 0.00 | 0.00 | 12 | 1005.3 |
| 20260902002540 | 88 | 200 | 6.0 | 12.0 | 0.00 | 0.00 | 0.00 | 11 | 1005.3 |
| 20260902002041 | 88 | 251 | 6.0 | 15.0 | 0.00 | 0.00 | 0.00 | 11 | 1005.3 |
| 20260902001540 | 88 | 227 | 7.0 | 15.0 | 0.00 | 0.00 | 0.00 | 11 | 1005.2 |
| 20260902001039 | 88 | 175 | 6.0 | 14.0 | 0.00 | 0.00 | 0.00 | 11 | 1005.3 |
| 20260902000538 | 88 | 192 | 7.0 | 13.0 | 0.00 | 0.00 | 0.00 | 11 | 1005.3 |
| 20260902000038 | 88 | 236 | 6.0 | 12.0 | 0.00 | 0.00 | 0.00 | 11 | 1005.3 |
| 20260901235538 | 88 | 219 | 6.0 | 18.0 | 0.00 | 0.00 | 0.00 | 11 | 1005.4 |
| 20260901235037 | 88 | 198 | 8.0 | 18.0 | 0.00 | 0.00 | 0.00 | 11 | 1005.4 |
| 20260901234537 | 88 | 229 | 8.0 | 18.0 | 0.00 | 0.00 | 0.00 | 10 | 1005.4 |
| 20260901234037 | 89 | 195 | 7.0 | 14.0 | 0.00 | 0.00 | 0.00 | 10 | 1005.4 |
| 20260901233537 | 88 | 241 | 7.0 | 18.0 | 0.00 | 0.00 | 0.00 | 10 | 1005.4 |
| 20260901233037 | 88 | 224 | 7.0 | 22.0 | 0.00 | 0.00 | 0.00 | 10 | 1005.5 |
| 20260901232536 | 89 | 257 | 9.0 | 22.0 | 0.00 | 0.00 | 0.00 | 10 | 1005.5 |
| 20260901232035 | 88 | 205 | 9.0 | 15.0 | 0.00 | 0.00 | 0.00 | 10 | 1005.5 |
| 20260901231538 | 89 | 192 | 7.0 | 13.0 | 0.00 | 0.00 | 0.00 | 10 | 1005.6 |
| 20260901231035 | 89 | 222 | 7.0 | 15.0 | 0.00 | 0.00 | 0.00 | 10 | 1005.6 |
| 20260901230533 | 89 | 225 | 7.0 | 17.0 | 0.00 | 0.00 | 0.00 | 10 | 1005.6 |
| 20260901230033 | 89 | 246 | 8.0 | 17.0 | 0.00 | 0.00 | 0.00 | 9 | 1005.7 |
| 20260901225532 | 89 | 249 | 7.0 | 18.0 | 0.00 | 0.00 | 0.00 | 9 | 1005.7 |
| 20260901225034 | 89 | 275 | 8.0 | 18.0 | 0.00 | 0.00 | 0.00 | 8 | 1005.8 |
| 20260901224535 | 89 | 200 | 7.0 | 14.0 | 0.00 | 0.00 | 0.00 | 9 | 1005.7 |
| 20260901224031 | 89 | 253 | 6.0 | 14.0 | 0.00 | 0.00 | 0.00 | 9 | 1005.7 |
| 20260901223532 | 89 | 254 | 8.0 | 14.0 | 0.00 | 0.00 | 0.00 | 9 | 1005.9 |
| 20260901223032 | 89 | 192 | 8.0 | 13.0 | 0.00 | 0.00 | 0.00 | 9 | 1005.9 |
| 20260901222530 | 89 | 261 | 5.0 | 14.0 | 0.00 | 0.00 | 0.00 | 9 | 1006.0 |
| 20260901222036 | 89 | 203 | 7.0 | 14.0 | 0.00 | 0.00 | 0.00 | 10 | 1006.1 |
| 20260901221530 | 89 | 221 | 7.0 | 17.0 | 0.00 | 0.00 | 0.00 | 9 | 1006.0 |
| 20260901221030 | 88 | 208 | 8.0 | 17.0 | 0.00 | 0.00 | 0.00 | 10 | 1006.0 |
| 20260901220530 | 89 | 213 | 9.0 | 15.0 | 0.00 | 0.00 | 0.00 | 10 | 1006.1 |
| 20260901220029 | 89 | 214 | 7.0 | 16.0 | 0.00 | 0.00 | 0.00 | 10 | 1006.2 |
| 20260901215533 | 89 | 213 | 6.0 | 19.0 | 0.00 | 0.00 | 0.00 | 10 | 1006.1 |
| 20260901215029 | 89 | 263 | 10.0 | 19.0 | 0.00 | 0.00 | 0.00 | 10 | 1006.1 |
| 20260901214532 | 89 | 250 | 6.0 | 20.0 | 0.00 | 0.00 | 0.00 | 11 | 1006.1 |
| 20260901214028 | 89 | 192 | 8.0 | 20.0 | 0.00 | 0.00 | 0.00 | 9 | 1006.2 |
| 20260901213530 | 89 | 219 | 7.0 | 14.0 | 0.00 | 0.00 | 0.00 | 10 | 1006.3 |
| 20260901213031 | 89 | 213 | 7.0 | 16.0 | 0.00 | 0.00 | 0.00 | 10 | 1006.3 |
| 20260901212527 | 89 | 268 | 8.0 | 15.0 | 0.00 | 0.00 | 0.00 | 9 | 1006.3 |
| 20260901212027 | 89 | 207 | 8.0 | 15.0 | 0.00 | 0.00 | 0.00 | 9 | 1006.4 |
| 20260901211527 | 89 | 203 | 7.0 | 17.0 | 0.00 | 0.00 | 0.00 | 9 | 1006.4 |
| 20260901211028 | 89 | 204 | 8.0 | 22.0 | 0.00 | 0.00 | 0.00 | 9 | 1006.4 |
| 20260901210526 | 89 | 203 | 9.0 | 22.0 | 0.00 | 0.00 | 0.00 | 10 | 1006.5 |
| 20260901210026 | 89 | 234 | 9.0 | 18.0 | 0.00 | 0.00 | 0.00 | 10 | 1006.6 |
| 20260901205526 | 89 | 233 | 7.0 | 17.0 | 0.00 | 0.00 | 0.00 | 9 | 1006.7 |
| 20260901205025 | 89 | 187 | 8.0 | 17.0 | 0.00 | 0.00 | 0.00 | 9 | 1006.7 |
| 20260901204525 | 89 | 202 | 7.0 | 16.0 | 0.00 | 0.00 | 0.00 | 11 | 1006.7 |
| 20260901204025 | 89 | 204 | 7.0 | 17.0 | 0.00 | 0.00 | 0.00 | 11 | 1006.8 |
| 20260901203524 | 88 | 212 | 7.0 | 14.0 | 0.00 | 0.00 | 0.00 | 11 | 1006.8 |
| 20260901203023 | 88 | 228 | 5.0 | 14.0 | 0.00 | 0.00 | 0.00 | 11 | 1006.9 |
| 20260901202521 | 88 | 242 | 8.0 | 15.0 | 0.00 | 0.00 | 0.00 | 12 | 1007.0 |
| 20260901202023 | 88 | 209 | 7.0 | 15.0 | 0.00 | 0.00 | 0.00 | 13 | 1007.1 |
| 20260901201521 | 88 | 218 | 6.0 | 12.0 | 0.00 | 0.00 | 0.00 | 13 | 1007.2 |
| 20260901201020 | 87 | 210 | 7.0 | 14.0 | 0.00 | 0.00 | 0.00 | 13 | 1007.3 |
| 20260901200525 | 88 | 222 | 6.0 | 14.0 | 0.00 | 0.00 | 0.00 | 13 | 1007.3 |
| 20260901200021 | 87 | 219 | 6.0 | 13.0 | 0.00 | 0.00 | 0.00 | 13 | 1007.3 |
| 20260901195521 | 88 | 237 | 6.0 | 13.0 | 0.00 | 0.00 | 0.00 | 13 | 1007.4 |
| 20260901195021 | 88 | 239 | 6.0 | 14.0 | 0.00 | 0.00 | 0.00 | 13 | 1007.4 |
| 20260901194521 | 87 | 271 | 6.0 | 16.0 | 0.00 | 0.00 | 0.00 | 13 | 1007.5 |
| 20260901194023 | 87 | 217 | 7.0 | 17.0 | 0.00 | 0.00 | 0.00 | 13 | 1007.6 |
| 20260901193520 | 87 | 216 | 7.0 | 17.0 | 0.00 | 0.00 | 0.00 | 13 | 1007.6 |
| 20260901193019 | 87 | 235 | 7.0 | 16.0 | 0.00 | 0.00 | 0.00 | 13 | 1007.7 |
| 20260901192525 | 88 | 183 | 7.0 | 17.0 | 0.00 | 0.00 | 0.00 | 13 | 1007.8 |
| 20260901192017 | 87 | 260 | 6.0 | 13.0 | 0.00 | 0.00 | 0.00 | 13 | 1007.7 |
| 20260901191518 | 87 | 234 | 7.0 | 12.0 | 0.00 | 0.00 | 0.00 | 14 | 1007.8 |
| 20260901191016 | 87 | 221 | 7.0 | 13.0 | 0.00 | 0.00 | 0.00 | 14 | 1007.7 |
| 20260901190516 | 87 | 216 | 6.0 | 15.0 | 0.00 | 0.00 | 0.00 | 14 | 1007.7 |
| 20260901190023 | 87 | 242 | 6.0 | 17.0 | 0.00 | 0.00 | 0.00 | 15 | 1007.7 |
| 20260901185517 | 86 | 247 | 6.0 | 17.0 | 0.00 | 0.00 | 0.00 | 16 | 1007.7 |
| 20260901185015 | 87 | 256 | 9.0 | 17.0 | 0.00 | 0.00 | 0.00 | 15 | 1007.8 |
| 20260901184515 | 87 | 209 | 8.0 | 12.0 | 0.00 | 0.00 | 0.00 | 15 | 1007.8 |
| 20260901184015 | 87 | 258 | 7.0 | 14.0 | 0.00 | 0.00 | 0.00 | 15 | 1007.8 |
| 20260901183515 | 87 | 237 | 6.0 | 14.0 | 0.00 | 0.00 | 0.00 | 15 | 1007.9 |
| 20260901183023 | 86 | 246 | 5.0 | 12.0 | 0.00 | 0.00 | 0.00 | 15 | 1007.9 |
| 20260901182513 | 87 | 248 | 5.0 | 18.0 | 0.00 | 0.00 | 0.00 | 15 | 1008.0 |
| 20260901182013 | 87 | 205 | 6.0 | 18.0 | 0.00 | 0.00 | 0.00 | 15 | 1008.0 |
| 20260901181514 | 87 | 203 | 4.0 | 12.0 | 0.00 | 0.00 | 0.00 | 17 | 1008.0 |
| 20260901181012 | 87 | 183 | 5.0 | 10.0 | 0.00 | 0.00 | 0.00 | 17 | 1008.0 |
| 20260901180511 | 86 | 205 | 5.0 | 17.0 | 0.00 | 0.00 | 0.00 | 16 | 1008.1 |
| 20260901180015 | 85 | 190 | 6.0 | 16.0 | 0.00 | 0.00 | 0.00 | 18 | 1008.1 |
| 20260901175510 | 85 | 194 | 10.0 | 15.0 | 0.00 | 0.00 | 0.00 | 18 | 1008.0 |
| 20260901175009 | 86 | 185 | 6.0 | 13.0 | 0.00 | 0.00 | 0.00 | 19 | 1008.0 |
| 20260901174510 | 86 | 233 | 8.0 | 13.0 | 0.00 | 0.00 | 0.00 | 18 | 1008.0 |
| 20260901174010 | 86 | 209 | 7.0 | 12.0 | 0.00 | 0.00 | 0.00 | 16 | 1008.0 |
| 20260901173507 | 86 | 209 | 4.0 | 12.0 | 0.00 | 0.00 | 0.00 | 15 | 1008.0 |
| 20260901173007 | 85 | 265 | 5.0 | 12.0 | 0.00 | 0.00 | 0.00 | 16 | 1008.0 |
| 20260901172504 | 85 | 211 | 3.0 | 12.0 | 0.00 | 0.00 | 0.00 | 18 | 1008.0 |
| 20260901172004 | 84 | 185 | 6.0 | 13.0 | 0.00 | 0.00 | 0.00 | 18 | 1008.1 |
| 20260901171506 | 84 | 136 | 5.0 | 14.0 | 0.00 | 0.00 | 0.00 | 18 | 1008.1 |
| 20260901171003 | 83 | 174 | 4.0 | 14.0 | 0.00 | 0.00 | 0.00 | 19 | 1008.0 |
| 20260901170502 | 83 | 156 | 4.0 | 12.0 | 0.00 | 0.00 | 0.00 | 18 | 1008.1 |
| 20260901170002 | 83 | 134 | 6.0 | 13.0 | 0.00 | 0.00 | 0.00 | 17 | 1008.1 |
| 20260901165501 | 83 | 132 | 5.0 | 13.0 | 0.00 | 0.00 | 0.00 | 16 | 1008.1 |
| 20260901165003 | 83 | 155 | 6.0 | 11.0 | 0.00 | 0.00 | 0.00 | 16 | 1008.1 |
| 20260901164603 | 83 | 155 | 7.0 | 11.0 | 0.00 | 0.00 | 0.00 | 15 | 1008.1 |
| 20260901164059 | 83 | 135 | 4.0 | 10.0 | 0.00 | 0.00 | 0.00 | 15 | 1008.0 |
| 20260901163559 | 83 | 166 | 4.0 | 10.0 | 0.00 | 0.00 | 0.00 | 15 | 1008.1 |
| 20260901163116 | 83 | 148 | 4.0 | 11.0 | 0.00 | 0.00 | 0.00 | 15 | 1008.1 |
| 20260901162557 | 82 | 73 | 4.0 | 11.0 | 0.00 | 0.00 | 0.00 | 15 | 1008.1 |
| 20260901162057 | 82 | 139 | 6.0 | 10.0 | 0.00 | 0.00 | 0.00 | 15 | 1008.1 |
| 20260901161606 | 82 | 171 | 5.0 | 10.0 | 0.00 | 0.00 | 0.00 | 14 | 1008.1 |
| 20260901161056 | 81 | 151 | 3.0 | 11.0 | 0.00 | 0.00 | 0.00 | 15 | 1008.1 |
| 20260901160557 | 81 | 141 | 5.0 | 11.0 | 0.00 | 0.00 | 0.00 | 14 | 1008.2 |
| 20260901160057 | 81 | 137 | 6.0 | 10.0 | 0.00 | 0.00 | 0.00 | 15 | 1008.2 |
| 20260901155559 | 81 | 159 | 5.0 | 9.0 | 0.00 | 0.00 | 0.00 | 15 | 1008.2 |
| 20260901155058 | 81 | 150 | 4.0 | 9.0 | 0.00 | 0.00 | 0.00 | 15 | 1008.2 |
| 20260901154556 | 80 | 131 | 5.0 | 11.0 | 0.00 | 0.00 | 0.00 | 15 | 1008.2 |
| 20260901154058 | 80 | 150 | 6.0 | 11.0 | 0.00 | 0.00 | 0.00 | 15 | 1008.1 |
| 20260901153556 | 80 | 137 | 2.0 | 7.0 | 0.00 | 0.00 | 0.00 | 16 | 1008.2 |
| 20260901153056 | 80 | 146 | 2.0 | 8.0 | 0.00 | 0.00 | 0.00 | 16 | 1008.2 |
| 20260901152554 | 79 | 140 | 2.0 | 8.0 | 0.00 | 0.00 | 0.00 | 16 | 1008.1 |
| 20260901152054 | 79 | 140 | 3.0 | 8.0 | 0.00 | 0.00 | 0.00 | 16 | 1008.1 |
| 20260901151558 | 78 | 140 | 5.0 | 9.0 | 0.00 | 0.00 | 0.00 | 16 | 1008.1 |
| 20260901151054 | 78 | 140 | 4.0 | 8.0 | 0.00 | 0.00 | 0.00 | 16 | 1008.1 |
| 20260901150554 | 78 | 149 | 3.0 | 8.0 | 0.00 | 0.00 | 0.00 | 16 | 1008.1 |
| 20260901150055 | 78 | 132 | 3.0 | 8.0 | 0.00 | 0.00 | 0.00 | 16 | 1008.1 |
| 20260901145553 | 78 | 142 | 3.0 | 9.0 | 0.00 | 0.00 | 0.00 | 16 | 1008.0 |
| 20260901145053 | 78 | 158 | 4.0 | 9.0 | 0.00 | 0.00 | 0.00 | 16 | 1008.0 |
| 20260901144552 | 79 | 133 | 3.0 | 9.0 | 0.00 | 0.00 | 0.00 | 15 | 1008.0 |
| 20260901144053 | 79 | 197 | 2.0 | 6.0 | 0.00 | 0.00 | 0.00 | 15 | 1007.9 |
| 20260901143551 | 78 | 196 | 3.0 | 6.0 | 0.00 | 0.00 | 0.00 | 15 | 1007.8 |
| 20260901143058 | 78 | 198 | 2.0 | 6.0 | 0.00 | 0.00 | 0.00 | 15 | 1007.7 |
| 20260901142549 | 78 | 211 | 2.0 | 8.0 | 0.00 | 0.00 | 0.00 | 15 | 1007.6 |
| 20260901142048 | 78 | 215 | 2.0 | 8.0 | 0.00 | 0.00 | 0.00 | 15 | 1007.6 |
| 20260901141548 | 77 | 227 | 3.0 | 7.0 | 0.00 | 0.00 | 0.00 | 15 | 1007.6 |
| 20260901141049 | 77 | 217 | 3.0 | 8.0 | 0.00 | 0.00 | 0.00 | 15 | 1007.5 |
| 20260901140549 | 77 | 223 | 3.0 | 8.0 | 0.00 | 0.00 | 0.00 | 15 | 1007.5 |
| 20260901140047 | 76 | 237 | 3.0 | 6.0 | 0.00 | 0.00 | 0.00 | 15 | 1007.5 |
| 20260901135547 | 75 | 200 | 2.0 | 4.0 | 0.00 | 0.00 | 0.00 | 16 | 1007.5 |
| 20260901135047 | 75 | 162 | 0.0 | 3.0 | 0.00 | 0.00 | 0.00 | 16 | 1007.5 |
| 20260901134547 | 74 | 162 | 0.0 | 4.0 | 0.00 | 0.00 | 0.00 | 16 | 1007.4 |
| 20260901134046 | 74 | 152 | 0.0 | 3.0 | 0.00 | 0.00 | 0.00 | 16 | 1007.4 |
| 20260901133547 | 74 | 150 | 0.0 | 4.0 | 0.00 | 0.00 | 0.00 | 16 | 1007.4 |
| 20260901133048 | 73 | 242 | 1.0 | 4.0 | 0.00 | 0.00 | 0.00 | 16 | 1007.3 |
| 20260901132545 | 73 | 242 | 1.0 | 4.0 | 0.00 | 0.00 | 0.00 | 17 | 1007.4 |
| 20260901132045 | 73 | 243 | 2.0 | 4.0 | 0.00 | 0.00 | 0.00 | 17 | 1007.5 |
| 20260901131547 | 73 | 243 | 1.0 | 3.0 | 0.00 | 0.00 | 0.00 | 16 | 1007.4 |
| 20260901131047 | 73 | 243 | 1.0 | 4.0 | 0.00 | 0.00 | 0.00 | 16 | 1007.4 |
| 20260901130543 | 74 | 243 | 2.0 | 4.0 | 0.00 | 0.00 | 0.00 | 16 | 1007.4 |
| 20260901130041 | 74 | 248 | 2.0 | 4.0 | 0.00 | 0.00 | 0.00 | 16 | 1007.3 |
| 20260901125541 | 74 | 249 | 1.0 | 4.0 | 0.00 | 0.00 | 0.00 | 16 | 1007.2 |
| 20260901125040 | 74 | 250 | 1.0 | 5.0 | 0.00 | 0.00 | 0.00 | 15 | 1007.1 |
| 20260901124540 | 74 | 250 | 2.0 | 5.0 | 0.00 | 0.00 | 0.00 | 15 | 1007.1 |
| 20260901124041 | 75 | 252 | 2.0 | 5.0 | 0.00 | 0.00 | 0.00 | 15 | 1007.0 |
| 20260901123539 | 75 | 254 | 1.0 | 5.0 | 0.00 | 0.00 | 0.00 | 15 | 1007.0 |
| 20260901123041 | 75 | 255 | 2.0 | 7.0 | 0.00 | 0.00 | 0.00 | 15 | 1007.0 |
| 20260901122538 | 75 | 257 | 2.0 | 7.0 | 0.00 | 0.00 | 0.00 | 15 | 1007.0 |
| 20260901122039 | 75 | 261 | 2.0 | 6.0 | 0.00 | 0.00 | 0.00 | 15 | 1007.0 |
| 20260901121540 | 75 | 262 | 1.0 | 3.0 | 0.00 | 0.00 | 0.00 | 14 | 1007.0 |
| 20260901121037 | 75 | 262 | 1.0 | 3.0 | 0.00 | 0.00 | 0.00 | 14 | 1006.9 |
| 20260901120538 | 75 | 262 | 1.0 | 4.0 | 0.00 | 0.00 | 0.00 | 14 | 1006.9 |
| 20260901120036 | 75 | 262 | 1.0 | 8.0 | 0.00 | 0.00 | 0.00 | 14 | 1006.9 |
| 20260901115535 | 75 | 262 | 2.0 | 8.0 | 0.00 | 0.00 | 0.00 | 14 | 1006.8 |
| 20260901115035 | 75 | 245 | 1.0 | 5.0 | 0.00 | 0.00 | 0.00 | 14 | 1006.8 |
| 20260901114534 | 76 | 244 | 1.0 | 5.0 | 0.00 | 0.00 | 0.00 | 14 | 1006.9 |
| 20260901114032 | 76 | 240 | 1.0 | 5.0 | 0.00 | 0.00 | 0.00 | 13 | 1006.9 |
| 20260901113533 | 76 | 238 | 1.0 | 6.0 | 0.00 | 0.00 | 0.00 | 13 | 1006.9 |
| 20260901113033 | 77 | 234 | 2.0 | 6.0 | 0.00 | 0.00 | 0.00 | 13 | 1006.9 |
| 20260901112532 | 77 | 227 | 3.0 | 5.0 | 0.00 | 0.00 | 0.00 | 13 | 1006.9 |
| 20260901112033 | 77 | 227 | 2.0 | 7.0 | 0.00 | 0.00 | 0.00 | 13 | 1006.9 |
| 20260901111529 | 77 | 224 | 2.0 | 7.0 | 0.00 | 0.00 | 0.00 | 13 | 1006.8 |
| 20260901111028 | 77 | 231 | 3.0 | 7.0 | 0.00 | 0.00 | 0.00 | 13 | 1006.8 |
| 20260901110527 | 78 | 230 | 3.0 | 6.0 | 0.00 | 0.00 | 0.00 | 13 | 1006.7 |
| 20260901110027 | 78 | 226 | 2.0 | 6.0 | 0.00 | 0.00 | 0.00 | 13 | 1006.7 |
| 20260901105527 | 78 | 226 | 1.0 | 8.0 | 0.00 | 0.00 | 0.00 | 13 | 1006.7 |
| 20260901105026 | 78 | 215 | 3.0 | 8.0 | 0.00 | 0.00 | 0.00 | 13 | 1006.6 |
| 20260901104527 | 77 | 204 | 2.0 | 7.0 | 0.00 | 0.00 | 0.00 | 13 | 1006.6 |
| 20260901104029 | 77 | 169 | 1.0 | 5.0 | 0.00 | 0.00 | 0.00 | 15 | 1006.6 |
| 20260901103524 | 77 | 169 | 1.0 | 5.0 | 0.00 | 0.00 | 0.00 | 16 | 1006.6 |
| 20260901103025 | 77 | 169 | 2.0 | 5.0 | 0.00 | 0.00 | 0.00 | 16 | 1006.6 |
| 20260901102524 | 77 | 169 | 1.0 | 4.0 | 0.00 | 0.00 | 0.00 | 17 | 1006.7 |
| 20260901102023 | 77 | 169 | 2.0 | 5.0 | 0.00 | 0.00 | 0.00 | 18 | 1006.6 |
| 20260901101522 | 77 | 169 | 2.0 | 5.0 | 0.00 | 0.00 | 0.00 | 18 | 1006.5 |
| 20260901101022 | 78 | 169 | 3.0 | 6.0 | 0.00 | 0.00 | 0.00 | 19 | 1006.5 |
| 20260901100524 | 78 | 168 | 2.0 | 6.0 | 0.00 | 0.00 | 0.00 | 19 | 1006.5 |
| 20260901100018 | 78 | 166 | 3.0 | 8.0 | 0.00 | 0.00 | 0.00 | 18 | 1006.4 |
| 20260901095518 | 78 | 181 | 3.0 | 10.0 | 0.00 | 0.00 | 0.00 | 18 | 1006.6 |
| 20260901095017 | 79 | 166 | 4.0 | 10.0 | 0.00 | 0.00 | 0.00 | 18 | 1006.5 |
| 20260901094517 | 79 | 180 | 4.0 | 7.0 | 0.00 | 0.00 | 0.00 | 18 | 1006.5 |
| 20260901094017 | 79 | 179 | 3.0 | 7.0 | 0.00 | 0.00 | 0.00 | 18 | 1006.5 |
| 20260901093515 | 79 | 186 | 4.0 | 7.0 | 0.00 | 0.00 | 0.00 | 18 | 1006.4 |
| 20260901093015 | 79 | 193 | 3.0 | 8.0 | 0.00 | 0.00 | 0.00 | 18 | 1006.4 |
| 20260901092514 | 80 | 228 | 2.0 | 8.0 | 0.00 | 0.00 | 0.00 | 18 | 1006.4 |
| 20260901092013 | 80 | 218 | 3.0 | 7.0 | 0.00 | 0.00 | 0.00 | 18 | 1006.3 |
| 20260901091512 | 80 | 232 | 4.0 | 7.0 | 0.00 | 0.00 | 0.00 | 18 | 1006.1 |
| 20260901091011 | 80 | 240 | 4.0 | 8.0 | 0.00 | 0.00 | 0.00 | 18 | 1006.1 |
| 20260901090511 | 80 | 211 | 4.0 | 8.0 | 0.00 | 0.00 | 0.00 | 18 | 1006.0 |
| 20260901090017 | 80 | 219 | 3.0 | 7.0 | 0.00 | 0.00 | 0.00 | 18 | 1006.0 |
| 20260901085511 | 80 | 215 | 3.0 | 7.0 | 0.00 | 0.00 | 0.00 | 18 | 1006.0 |
| 20260901085011 | 80 | 221 | 3.0 | 8.0 | 0.00 | 0.00 | 0.00 | 18 | 1006.1 |
| 20260901084510 | 80 | 250 | 3.0 | 11.0 | 0.00 | 0.00 | 0.00 | 18 | 1006.1 |
| 20260901084010 | 81 | 223 | 3.0 | 11.0 | 0.00 | 0.00 | 0.00 | 18 | 1006.1 |
| 20260901083510 | 81 | 244 | 4.0 | 8.0 | 0.00 | 0.00 | 0.00 | 18 | 1006.1 |
| 20260901083010 | 81 | 227 | 4.0 | 10.0 | 0.00 | 0.00 | 0.00 | 18 | 1006.0 |
| 20260901082509 | 80 | 224 | 3.0 | 11.0 | 0.00 | 0.00 | 0.00 | 18 | 1006.0 |
| 20260901082009 | 80 | 221 | 4.0 | 11.0 | 0.00 | 0.00 | 0.00 | 18 | 1006.0 |
| 20260901081509 | 80 | 230 | 5.0 | 11.0 | 0.00 | 0.00 | 0.00 | 18 | 1006.0 |
| 20260901081009 | 80 | 231 | 4.0 | 7.0 | 0.00 | 0.00 | 0.00 | 18 | 1006.0 |
| 20260901080509 | 80 | 236 | 4.0 | 9.0 | 0.00 | 0.00 | 0.00 | 18 | 1006.1 |
| 20260901080009 | 80 | 239 | 4.0 | 7.0 | 0.00 | 0.00 | 0.00 | 18 | 1006.1 |
| 20260901075508 | 81 | 215 | 3.0 | 10.0 | 0.00 | 0.00 | 0.00 | 18 | 1006.2 |
| 20260901075012 | 81 | 222 | 3.0 | 10.0 | 0.00 | 0.00 | 0.00 | 18 | 1006.2 |
| 20260901074506 | 81 | 215 | 3.0 | 8.0 | 0.00 | 0.00 | 0.00 | 18 | 1006.2 |
| 20260901074009 | 81 | 220 | 3.0 | 8.0 | 0.00 | 0.00 | 0.00 | 17 | 1006.1 |
| 20260901073504 | 82 | 233 | 4.0 | 9.0 | 0.00 | 0.00 | 0.00 | 18 | 1005.9 |
| 20260901073002 | 82 | 221 | 3.0 | 9.0 | 0.00 | 0.00 | 0.00 | 17 | 1005.9 |
| 20260901072501 | 82 | 234 | 5.0 | 9.0 | 0.00 | 0.00 | 0.00 | 17 | 1005.8 |
| 20260901072101 | 82 | 232 | 4.0 | 8.0 | 0.00 | 0.00 | 0.00 | 18 | 1005.8 |
| 20260901071607 | 82 | 217 | 3.0 | 7.0 | 0.00 | 0.00 | 0.00 | 17 | 1005.8 |
| 20260901071059 | 82 | 217 | 4.0 | 11.0 | 0.00 | 0.00 | 0.00 | 17 | 1005.8 |
| 20260901070558 | 82 | 245 | 4.0 | 11.0 | 0.00 | 0.00 | 0.00 | 17 | 1005.7 |
| 20260901070058 | 82 | 273 | 3.0 | 10.0 | 0.00 | 0.00 | 0.00 | 17 | 1005.6 |
| 20260901065557 | 82 | 243 | 3.0 | 9.0 | 0.00 | 0.00 | 0.00 | 16 | 1005.6 |
| 20260901065057 | 82 | 235 | 4.0 | 8.0 | 0.00 | 0.00 | 0.00 | 16 | 1005.6 |
| 20260901064557 | 82 | 234 | 4.0 | 7.0 | 0.00 | 0.00 | 0.00 | 16 | 1005.5 |
| 20260901064059 | 82 | 248 | 3.0 | 10.0 | 0.00 | 0.00 | 0.00 | 16 | 1005.5 |
| 20260901063556 | 82 | 226 | 4.0 | 10.0 | 0.00 | 0.00 | 0.00 | 16 | 1005.5 |
| 20260901063102 | 82 | 221 | 3.0 | 8.0 | 0.00 | 0.00 | 0.00 | 16 | 1005.5 |
| 20260901062556 | 82 | 244 | 4.0 | 9.0 | 0.00 | 0.00 | 0.00 | 16 | 1005.5 |
| 20260901062055 | 82 | 241 | 3.0 | 9.0 | 0.00 | 0.00 | 0.00 | 16 | 1005.5 |
| 20260901061556 | 82 | 238 | 2.0 | 9.0 | 0.00 | 0.00 | 0.00 | 16 | 1005.5 |
| 20260901061055 | 83 | 216 | 5.0 | 13.0 | 0.00 | 0.00 | 0.00 | 16 | 1005.5 |
| 20260901060555 | 83 | 240 | 5.0 | 13.0 | 0.00 | 0.00 | 0.00 | 16 | 1005.5 |
| 20260901060054 | 83 | 252 | 4.0 | 11.0 | 0.00 | 0.00 | 0.00 | 16 | 1005.4 |
| 20260901055554 | 83 | 259 | 4.0 | 11.0 | 0.00 | 0.00 | 0.00 | 16 | 1005.3 |
| 20260901055054 | 83 | 211 | 3.0 | 9.0 | 0.00 | 0.00 | 0.00 | 18 | 1005.3 |
| 20260901054556 | 83 | 246 | 3.0 | 9.0 | 0.00 | 0.00 | 0.00 | 18 | 1005.3 |
| 20260901054058 | 83 | 237 | 3.0 | 7.0 | 0.00 | 0.00 | 0.00 | 18 | 1005.1 |
| 20260901053553 | 83 | 229 | 2.0 | 9.0 | 0.00 | 0.00 | 0.00 | 19 | 1004.9 |
| 20260901053100 | 83 | 217 | 4.0 | 9.0 | 0.00 | 0.00 | 0.00 | 20 | 1004.9 |
| 20260901052551 | 83 | 216 | 4.0 | 11.0 | 0.00 | 0.00 | 0.00 | 25 | 1004.9 |
| 20260901052051 | 83 | 176 | 5.0 | 14.0 | 0.00 | 0.00 | 0.00 | 34 | 1005.0 |
| 20260901051556 | 83 | 198 | 7.0 | 16.0 | 0.00 | 0.00 | 0.00 | 35 | 1005.0 |
| 20260901051051 | 83 | 170 | 6.0 | 18.0 | 0.00 | 0.00 | 0.00 | 34 | 1005.0 |
| 20260901050554 | 83 | 193 | 8.0 | 15.0 | 0.00 | 0.00 | 0.00 | 33 | 1005.1 |
| 20260901050051 | 84 | 188 | 8.0 | 17.0 | 0.00 | 0.00 | 0.00 | 32 | 1005.1 |
| 20260901045549 | 84 | 184 | 5.0 | 20.0 | 0.00 | 0.00 | 0.00 | 30 | 1005.0 |
| 20260901045049 | 84 | 170 | 9.0 | 20.0 | 0.00 | 0.00 | 0.00 | 30 | 1005.1 |
| 20260901044554 | 84 | 176 | 6.0 | 17.0 | 0.00 | 0.00 | 0.00 | 33 | 1005.0 |
| 20260901044049 | 84 | 168 | 5.0 | 17.0 | 0.00 | 0.00 | 0.00 | 35 | 1004.9 |
| 20260901043548 | 84 | 150 | 6.0 | 15.0 | 0.00 | 0.00 | 0.00 | 36 | 1004.9 |
| 20260901043048 | 84 | 133 | 8.0 | 15.0 | 0.00 | 0.00 | 0.00 | 36 | 1005.0 |
| 20260901042547 | 84 | 165 | 8.0 | 17.0 | 0.00 | 0.00 | 0.00 | 36 | 1005.0 |
| 20260901042046 | 84 | 133 | 9.0 | 17.0 | 0.00 | 0.00 | 0.00 | 34 | 1004.7 |
| 20260901041611 | 85 | 213 | 2.0 | 5.0 | 0.00 | 0.00 | 0.00 | 24 | 1004.8 |
| 20260901041046 | 85 | 225 | 0.0 | 3.0 | 0.00 | 0.00 | 0.00 | 21 | 1004.7 |
| 20260901040545 | 86 | 225 | 0.0 | 4.0 | 0.00 | 0.00 | 0.00 | 21 | 1004.6 |
| 20260901040106 | 86 | 225 | 1.0 | 4.0 | 0.00 | 0.00 | 0.00 | 21 | 1004.5 |
| 20260901035544 | 86 | 225 | 1.0 | 4.0 | 0.00 | 0.00 | 0.00 | 21 | 1004.5 |
| 20260901035043 | 86 | 225 | 2.0 | 4.0 | 0.00 | 0.00 | 0.00 | 21 | 1004.4 |
| 20260901034543 | 86 | 225 | 2.0 | 4.0 | 0.00 | 0.00 | 0.00 | 21 | 1004.4 |
| 20260901034043 | 86 | 224 | 2.0 | 5.0 | 0.00 | 0.00 | 0.00 | 20 | 1004.3 |
| 20260901033547 | 86 | 224 | 3.0 | 6.0 | 0.00 | 0.00 | 0.00 | 20 | 1004.2 |
| 20260901033044 | 86 | 232 | 3.0 | 8.0 | 0.00 | 0.00 | 0.00 | 20 | 1004.2 |
| 20260901032544 | 87 | 223 | 2.0 | 8.0 | 0.00 | 0.00 | 0.00 | 20 | 1004.1 |
| 20260901032044 | 87 | 216 | 2.0 | 9.0 | 0.00 | 0.00 | 0.00 | 20 | 1004.1 |
| 20260901031542 | 87 | 219 | 4.0 | 9.0 | 0.00 | 0.00 | 0.00 | 20 | 1004.1 |
| 20260901031041 | 87 | 238 | 4.0 | 8.0 | 0.00 | 0.00 | 0.00 | 20 | 1004.0 |
| 20260901030541 | 87 | 216 | 2.0 | 7.0 | 0.00 | 0.00 | 0.00 | 19 | 1003.9 |
| 20260901030041 | 87 | 180 | 3.0 | 7.0 | 0.00 | 0.00 | 0.00 | 19 | 1003.9 |
| 20260901025541 | 87 | 232 | 2.0 | 11.0 | 0.00 | 0.00 | 0.00 | 19 | 1003.9 |
| 20260901025041 | 87 | 227 | 5.0 | 11.0 | 0.00 | 0.00 | 0.00 | 19 | 1003.8 |
| 20260901024544 | 87 | 238 | 4.0 | 9.0 | 0.00 | 0.00 | 0.00 | 19 | 1003.8 |
| 20260901024041 | 88 | 223 | 3.0 | 8.0 | 0.00 | 0.00 | 0.00 | 19 | 1003.8 |
| 20260901023540 | 88 | 235 | 5.0 | 9.0 | 0.00 | 0.00 | 0.00 | 18 | 1003.8 |
| 20260901023041 | 88 | 228 | 3.0 | 9.0 | 0.00 | 0.00 | 0.00 | 18 | 1003.7 |
| 20260901022540 | 88 | 227 | 4.0 | 10.0 | 0.00 | 0.00 | 0.00 | 18 | 1003.7 |
| 20260901022040 | 88 | 215 | 4.0 | 10.0 | 0.00 | 0.00 | 0.00 | 18 | 1003.7 |
| 20260901021541 | 88 | 218 | 3.0 | 10.0 | 0.00 | 0.00 | 0.00 | 18 | 1003.7 |
| 20260901021040 | 88 | 241 | 3.0 | 10.0 | 0.00 | 0.00 | 0.00 | 18 | 1003.7 |
| 20260901020540 | 88 | 221 | 4.0 | 10.0 | 0.00 | 0.00 | 0.00 | 18 | 1003.5 |
| 20260901020042 | 88 | 235 | 3.0 | 9.0 | 0.00 | 0.00 | 0.00 | 18 | 1003.5 |
| 20260901015538 | 89 | 259 | 4.0 | 9.0 | 0.00 | 0.00 | 0.00 | 18 | 1003.5 |
| 20260901015038 | 89 | 239 | 5.0 | 9.0 | 0.00 | 0.00 | 0.00 | 18 | 1003.4 |
| 20260901014538 | 89 | 236 | 3.0 | 11.0 | 0.00 | 0.00 | 0.00 | 17 | 1003.4 |
| 20260901014038 | 89 | 212 | 4.0 | 11.0 | 0.00 | 0.00 | 0.00 | 18 | 1003.4 |
| 20260901013538 | 89 | 242 | 4.0 | 13.0 | 0.00 | 0.00 | 0.00 | 18 | 1003.4 |
| 20260901013039 | 89 | 240 | 4.0 | 13.0 | 0.00 | 0.00 | 0.00 | 17 | 1003.5 |
| 20260901012537 | 90 | 205 | 5.0 | 10.0 | 0.00 | 0.00 | 0.00 | 17 | 1003.4 |
| 20260901012037 | 90 | 200 | 4.0 | 8.0 | 0.00 | 0.00 | 0.00 | 17 | 1003.4 |
| 20260901011540 | 91 | 233 | 5.0 | 8.0 | 0.00 | 0.00 | 0.00 | 17 | 1003.5 |
| 20260901011037 | 91 | 234 | 4.0 | 13.0 | 0.00 | 0.00 | 0.00 | 17 | 1003.5 |
| 20260901010537 | 91 | 193 | 6.0 | 13.0 | 0.00 | 0.00 | 0.00 | 17 | 1003.5 |
| 20260901010051 | 91 | 258 | 5.0 | 13.0 | 0.00 | 0.00 | 0.00 | 17 | 1003.5 |
| 20260901005535 | 91 | 232 | 5.0 | 13.0 | 0.00 | 0.00 | 0.00 | 17 | 1003.5 |
| 20260901005037 | 91 | 235 | 7.0 | 15.0 | 0.00 | 0.00 | 0.00 | 16 | 1003.5 |